Погода Бухта Амбарчик

Погода Бухта Амбарчик : погода сейчас, прогноз погоды и архив. Всё, что Вы хотите узнать о погоде Бухта Амбарчик!

Хотите узнать прогноз погоды Бухта Амбарчик? Тогда Вам сюда: Погода Бухта Амбарчик

Поиск расширенной информации на нашем сайте:

Другие новости

Новости СМИ2

Главная страница сайта

Новости сайта

03.07.2017

Напоминаем, что на нашем специализированном сайте Метеоцентр.Азия вы можете получить высокодетализированные автоматические прогнозы погоды по пунктам России, СНГ и мира в авиационном формате (включающие направление и скорость ветра, видимость, явления погоды, количество и форму облачности, нижнюю и верхнюю границу облачности).

Рекомендуем: Подробное описание как подтянуть рулевую рейку тут.

Погода Бухта Амбарчик - сегодня

Время (UTC), дата Ветер
(°,м/с) 
Видим.   Явления Облачность Т
(°С)
Тd
(°С)
f(%) Тe
(°С)
Pmin
(гПа)
dP
(гПа)
Po
(мм)
O2
(г/м3)
Тmin Tmax R s Состояние
почвы
00 18.08.17 340 (С) 5{08}  20000 м  {морось}  10/10 300 м 
[St]
+4.1 +1.4 83 +2  1014.2  0.6  758  301           
03 18.08.17 320 (СЗ) 5{09}  20000 м    10/10 300 м 
[St]
+4.2 +1.4 82 +2  1014.4  0.2  759  301           
06 18.08.17 350 (С) 1{07}  20000 м    10/10 300 м 
[St]
+4.1 +1.1 81 +5  1014.3  -0.1  759  301           
09 18.08.17 120 (ЮВ) 2{05}  20000 м    9/9 300 м 
[St]
+3.5 +1.2 85 +3  1014.4  0.1  759  302    +4.6       
12 18.08.17 170 (Ю) 3{03}  20000 м    6/4 300 м средняя 
[St|Ac trans]
+0.3 -0.9 92 -1  1014.4  759  305           
15 18.08.17 150 (ЮВ) 3{04}  20000 м    4/1 300 м средняя 
[Sc|Ac trans]
-0.3 -1.7 90 -2  1014  -0.4  758  306           
18 18.08.17 170 (Ю) 3{05}  20000 м    3/3 300 м 
[Sc]
+2.7 -0.3 81 +1  1014.2  0.2  758  303           
21 18.08.17 030 (СВ) 1{04}  20000 м    3/3 300 м 
[Sc]
+6.8 +2.9 76 +8  1014.3  0.2  759  298  -0.6        влажная 
00 19.08.17 330 (СЗ) 2{03}  20000 м    6/0 верхняя 
[Ci fib]
+8.9 +3.7 70 +9  1014.4  0.1  759  296           
03 19.08.17 020 (С) 2{04}  20000 м    8/0 верхняя 
[Ci]
+9.7 +5.1 73 +10  1013.4  -1  758  294           
06 19.08.17 070 (В) 3{04}  20000 м    8/0 средняя, верхняя 
[Ac trans|Ci]
+10.2 +5 70 +10  1012.3  -1.1  757  293           
09 19.08.17 170 (Ю) 4{05}  20000 м    9/9 300 м 
[Sc]
+8 +3.6 74 +7  1011.4  -0.9  756  296    +10.3       
15 19.08.17 190 (Ю) 4{06}  20000 м    8/8 300 м 
[Sc]
+7.8 +3.6 75 +7  1009.3  -1.1  755  295           
18 19.08.17 160 (Ю) 5{06}  20000 м    9/0 средняя 
[Ac trans]
+7.7 +3 72 +6  1007.9  -1.4  754  295           
21 19.08.17 150 (ЮВ) 6{08}  20000 м    10/5 600 м средняя 
[Sc|Ac und]
+10.5 +4.8 68 +9  1006.1  -1.8  752  291  +5.1        влажная 
00 20.08.17 160 (Ю) 5{09}  20000 м    10/10 600 м 
[Sc]
+13.9 +5 55 +13  1004.4  -1.7  751  287           
03 20.08.17 тихо () {07}  10 км  ливневой дождь  10/10 300 м кучево-дожд. 
[Cb cap]
+11.3 +8.1 81 +11  1003.2  -1.2  750  289           
06 20.08.17 090 (В) 3{05}  4000 м  дождь{ливн. осадки}  10/3 300 м средняя 
[Frnb|As op]
+9.5 +8.7 95 +9  1003  -0.2  750  291           
09 20.08.17 150 (ЮВ) 2{06}  4000 м  слаб. дождь  10/8 200 м средняя 
[Frnb|As op]
+8.8 +8.1 95 +9  1002.8  -0.2  750  291    +14.2     
12 20.08.17 030 (СВ) 2{04}  4000 м  слаб. морось{дождь}  10/10 200 м 
[St]
+8.7 +8.1 96 +9  1003.5  0.7  751  292           
15 20.08.17 010 (С) 5{07}  10 км  {морось}  10/10 300 м 
[St]
+8.2 +7.5 95 +7  1005.4  1.9  752  293           
18 20.08.17 070 (В) 3{06}  20000 м  {морось}  10/10 300 м 
[St]
+7.9 +6.8 93 +7  1007.5  2.1  754  294           
21 20.08.17 330 (СЗ) 3{06}  20000 м    10/10 300 м 
[St]
+8.1 +7 93 +7  1009.8  2.3  755  294  +7.7    0.3    влажная 
00 21.08.17 300 (СЗ) 4{06}  4000 м  слаб. морось  10/10 300 м 
[St]
+8.9 +8.1 95 +8  1010.9  1.1  756  294           
03 21.08.17 290 (З) 5{08}  10 км  слаб. морось  10/10 300 м 
[St]
+9.3 +7.7 90 +8  1011.7  0.8  757  294           
Время (UTC), дата Ветер
(°,м/с) 
Видим.   Явления Облачность Т
(°С)
Тd
(°С)
f(%) Тe
(°С)
Pmin
(гПа)
dP
(гПа)
Po
(мм)
O2
(г/м3)
Тmin Tmax R s Состояние
почвы

Для получения пояснительной информации подведите курсор к названию столбца.

ПОГОДА Бухта Амбарчик - архив

Всё, что Вы хотите узнать о погоде Бухта Амбарчик - удобно и подробно!

Выберите нужную дату (начиная с 1 января 2015* года) и нажмите кнопку "Найти".
Будут отображены архивные сводки погоды по пункту Бухта Амбарчик, начиная с указанной даты.


Отображать данные в формате CSV (для использования в таблицах Excel)


Внимание! Наш архив погоды предназначен исключительно для личного некоммерческого использования в познавательных целях. Если Вам необходимы официальные справки о состоянии погоды (для производственных, юридических, коммерческих и т.п. целей), обращайтесь в органы Росгидромета.

*Примечание: данная дата относится к архиву по метеостанциям СССР (Россия, СНГ, Балтия).
Архив по метеостанциям Зарубежной Европы и Азии (кроме Китая) хранится 10 дней, по другим регионам земного шара (Китай, Африка, Америка, Австралия, Океания) - 1 день.

Бухта Амбарчик - район местоположения метеостанции


Название, широта, долгота, высота метеостанции:
Бухта Амбарчик 69.6°ш. 162.3°д. 23 м над ур. моря [Российская Федерация]

Дополнительная информация

В oтличие oт бoльшинства пoгoдных сайтoв мы публикуем пoдрoбную метеoинфoрмацию в детальнoм прoфессиoнальнoм фoрмате.

Характеристики температуры и влажнoсти вoздуха измеряются на высoте 2 м в тени вдали oт зданий и деревьев.
Скoрoсть ветра измеряется на высoте 10 м (на урoвне рoста челoвека скoрoсть ветра ниже в 1.5-2 раза). Если метеoстанция нахoдится в гoрoде или в лесу, тo скoрoсть ветра занижена на 2-4 м/с пo сравнению с oткрытым местoм. Скoрoсть ветра над акватoриями крупных рек и oзёр, а также на вершинах хoлмoв на 2-5 м/с выше, чем в oбычных услoвиях.
Атмoсфернoе давление в разных тoчках местнoсти мoжет значительнo oтличаться oт давления на метеoстанции, в зависимoсти oт услoвий рельефа (при пoдъёме на 10 м давление пoнижается примернo на 1 мм рт.ст.).